Wetterdaten: Freitag, 14.08.2015
Datum Zeit Temp. A. Feuchte A. Luftdruck Regen Wind Richtung Richtung Sonnenschein ET UV Solar Taupunkt Windchill Windben Empfang
14.08.2015 00:04 23,6 C 49 % 1010,1 hPa 0,0 l/m 1,4 km/h (1 Bft) O 89 0 min 0,000 mm 0,0 UV-I 0 W/m 12,2 C 23,6 C 4,0 km/h (1 Bft) 0,00 %
14.08.2015 00:09 23,3 C 50 % 1010,0 hPa 0,0 l/m 4,0 km/h (1 Bft) O-SO 107 0 min 0,000 mm 0,0 UV-I 0 W/m 12,3 C 23,3 C 4,0 km/h (1 Bft) 0,00 %
14.08.2015 00:14 23,0 C 51 % 1009,9 hPa 0,0 l/m 2,2 km/h (1 Bft) O 82 0 min 0,000 mm 0,0 UV-I 0 W/m 12,3 C 23,0 C 4,0 km/h (1 Bft) 0,00 %
14.08.2015 00:19 22,9 C 51 % 1010,0 hPa 0,0 l/m 0,0 km/h (0 Bft) O-SO 103 0 min 0,000 mm 0,0 UV-I 0 W/m 12,2 C 22,9 C 0,0 km/h (0 Bft) 0,00 %
14.08.2015 00:24 22,8 C 51 % 1009,9 hPa 0,0 l/m 0,4 km/h (0 Bft) SO 136 0 min 0,000 mm 0,0 UV-I 0 W/m 12,1 C 22,8 C 4,0 km/h (1 Bft) 0,00 %
14.08.2015 00:29 22,8 C 51 % 1009,8 hPa 0,0 l/m 0,0 km/h (0 Bft) O-NO 67 0 min 0,000 mm 0,0 UV-I 0 W/m 12,1 C 22,8 C 0,0 km/h (0 Bft) 0,00 %
14.08.2015 00:34 22,8 C 51 % 1009,8 hPa 0,0 l/m 0,0 km/h (0 Bft) O-SO 122 0 min 0,000 mm 0,0 UV-I 0 W/m 12,1 C 22,8 C 0,0 km/h (0 Bft) 0,00 %
14.08.2015 00:39 22,9 C 51 % 1010,0 hPa 0,0 l/m 0,0 km/h (0 Bft) O-NO 62 0 min 0,000 mm 0,0 UV-I 0 W/m 12,2 C 22,9 C 0,0 km/h (0 Bft) 0,00 %
14.08.2015 00:44 22,8 C 51 % 1010,2 hPa 0,0 l/m 0,0 km/h (0 Bft) O-SO 108 0 min 0,000 mm 0,0 UV-I 0 W/m 12,1 C 22,8 C 0,0 km/h (0 Bft) 0,00 %
14.08.2015 00:49 22,7 C 52 % 1010,1 hPa 0,0 l/m 0,0 km/h (0 Bft) NO 56 0 min 0,000 mm 0,0 UV-I 0 W/m 12,3 C 22,7 C 0,0 km/h (0 Bft) 0,00 %
14.08.2015 00:54 22,5 C 52 % 1010,0 hPa 0,0 l/m 0,0 km/h (0 Bft) O 85 0 min 0,000 mm 0,0 UV-I 0 W/m 12,1 C 22,5 C 0,0 km/h (0 Bft) 0,00 %
14.08.2015 00:59 22,3 C 52 % 1010,1 hPa 0,0 l/m 0,0 km/h (0 Bft) O 80 0 min 0,000 mm 0,0 UV-I 0 W/m 12,0 C 22,3 C 0,0 km/h (0 Bft) 0,00 %
14.08.2015 01:04 22,1 C 53 % 1010,1 hPa 0,0 l/m 0,0 km/h (0 Bft) SO 142 0 min 0,000 mm 0,0 UV-I 0 W/m 12,1 C 22,1 C 0,0 km/h (0 Bft) 0,00 %
14.08.2015 01:10 22,0 C 53 % 1010,0 hPa 0,0 l/m 0,0 km/h (0 Bft) O-SO 112 0 min 0,000 mm 0,0 UV-I 0 W/m 12,0 C 22,0 C 0,0 km/h (0 Bft) 0,00 %
14.08.2015 01:15 22,0 C 53 % 1010,0 hPa 0,0 l/m 0,0 km/h (0 Bft) N 353 0 min 0,000 mm 0,0 UV-I 0 W/m 12,0 C 22,0 C 0,0 km/h (0 Bft) 0,00 %
14.08.2015 01:20 21,9 C 53 % 1010,1 hPa 0,0 l/m 0,0 km/h (0 Bft) O 96 0 min 0,000 mm 0,0 UV-I 0 W/m 11,9 C 21,9 C 0,0 km/h (0 Bft) 0,00 %
14.08.2015 01:25 21,8 C 53 % 1010,1 hPa 0,0 l/m 0,0 km/h (0 Bft) O-NO 73 0 min 0,000 mm 0,0 UV-I 0 W/m 11,8 C 21,8 C 0,0 km/h (0 Bft) 0,00 %
14.08.2015 01:30 21,7 C 54 % 1009,9 hPa 0,0 l/m 0,0 km/h (0 Bft) O 89 0 min 0,000 mm 0,0 UV-I 0 W/m 12,0 C 21,7 C 0,0 km/h (0 Bft) 0,00 %
14.08.2015 01:35 21,5 C 54 % 1009,8 hPa 0,0 l/m 0,4 km/h (0 Bft) O-NO 74 0 min 0,000 mm 0,0 UV-I 0 W/m 11,8 C 21,5 C 4,0 km/h (1 Bft) 0,00 %
14.08.2015 01:40 21,4 C 54 % 1010,0 hPa 0,0 l/m 0,0 km/h (0 Bft) NO 46 0 min 0,000 mm 0,0 UV-I 0 W/m 11,7 C 21,4 C 0,0 km/h (0 Bft) 0,00 %
14.08.2015 01:45 21,3 C 55 % 1009,9 hPa 0,0 l/m 0,0 km/h (0 Bft) NO 48 0 min 0,000 mm 0,0 UV-I 0 W/m 11,9 C 21,3 C 0,0 km/h (0 Bft) 0,00 %
14.08.2015 01:50 21,1 C 55 % 1009,9 hPa 0,0 l/m 0,0 km/h (0 Bft) O-SO 102 0 min 0,000 mm 0,0 UV-I 0 W/m 11,7 C 21,1 C 0,0 km/h (0 Bft) 0,00 %
14.08.2015 01:55 21,0 C 57 % 1010,0 hPa 0,0 l/m 0,0 km/h (0 Bft) O-NO 71 0 min 0,000 mm 0,0 UV-I 0 W/m 12,1 C 21,0 C 0,0 km/h (0 Bft) 0,00 %
14.08.2015 02:00 20,9 C 57 % 1009,8 hPa 0,0 l/m 0,0 km/h (0 Bft) O-SO 103 0 min 0,000 mm 0,0 UV-I 0 W/m 12,1 C 20,9 C 0,0 km/h (0 Bft) 0,00 %
14.08.2015 02:05 20,9 C 57 % 1009,7 hPa 0,0 l/m 0,0 km/h (0 Bft) N-NO 28 0 min 0,000 mm 0,0 UV-I 0 W/m 12,1 C 20,9 C 0,0 km/h (0 Bft) 0,00 %
14.08.2015 02:10 20,9 C 56 % 1009,8 hPa 0,0 l/m 0,0 km/h (0 Bft) O-NO 64 0 min 0,000 mm 0,0 UV-I 0 W/m 11,8 C 20,9 C 0,0 km/h (0 Bft) 0,00 %
14.08.2015 02:15 20,9 C 56 % 1009,7 hPa 0,0 l/m 0,0 km/h (0 Bft) NO 38 0 min 0,000 mm 0,0 UV-I 0 W/m 11,8 C 20,9 C 0,0 km/h (0 Bft) 0,00 %
14.08.2015 02:20 21,0 C 56 % 1009,8 hPa 0,0 l/m 0,0 km/h (0 Bft) O 95 0 min 0,000 mm 0,0 UV-I 0 W/m 11,9 C 21,0 C 0,0 km/h (0 Bft) 0,00 %
14.08.2015 02:25 21,0 C 55 % 1009,6 hPa 0,0 l/m 0,0 km/h (0 Bft) NO 43 0 min 0,000 mm 0,0 UV-I 0 W/m 11,6 C 21,0 C 0,0 km/h (0 Bft) 0,00 %
14.08.2015 02:30 21,0 C 56 % 1009,6 hPa 0,0 l/m 0,0 km/h (0 Bft) NO 45 0 min 0,000 mm 0,0 UV-I 0 W/m 11,9 C 21,0 C 0,0 km/h (0 Bft) 0,00 %
14.08.2015 02:35 21,0 C 56 % 1009,5 hPa 0,0 l/m 0,0 km/h (0 Bft) O 99 0 min 0,000 mm 0,0 UV-I 0 W/m 11,9 C 21,0 C 0,0 km/h (0 Bft) 0,00 %
14.08.2015 02:40 21,0 C 56 % 1009,3 hPa 0,0 l/m 0,4 km/h (0 Bft) O 100 0 min 0,000 mm 0,0 UV-I 0 W/m 11,9 C 21,0 C 4,0 km/h (1 Bft) 0,00 %
14.08.2015 02:45 21,0 C 55 % 1009,5 hPa 0,0 l/m 0,0 km/h (0 Bft) NO 52 0 min 0,000 mm 0,0 UV-I 0 W/m 11,6 C 21,0 C 0,0 km/h (0 Bft) 0,00 %
14.08.2015 02:50 21,0 C 55 % 1009,5 hPa 0,0 l/m 0,0 km/h (0 Bft) O 88 0 min 0,000 mm 0,0 UV-I 0 W/m 11,6 C 21,0 C 0,0 km/h (0 Bft) 0,00 %
14.08.2015 02:55 20,9 C 57 % 1009,4 hPa 0,0 l/m 0,0 km/h (0 Bft) O-NO 75 0 min 0,000 mm 0,0 UV-I 0 W/m 12,1 C 20,9 C 0,0 km/h (0 Bft) 0,00 %
14.08.2015 03:00 20,8 C 58 % 1009,5 hPa 0,0 l/m 0,0 km/h (0 Bft) O 98 0 min 0,000 mm 0,0 UV-I 0 W/m 12,2 C 20,8 C 0,0 km/h (0 Bft) 0,00 %
14.08.2015 03:05 20,6 C 59 % 1009,4 hPa 0,0 l/m 0,0 km/h (0 Bft) O-NO 70 0 min 0,000 mm 0,0 UV-I 0 W/m 12,3 C 20,6 C 0,0 km/h (0 Bft) 0,00 %
14.08.2015 03:10 20,4 C 59 % 1009,3 hPa 0,0 l/m 0,0 km/h (0 Bft) O-NO 57 0 min 0,000 mm 0,0 UV-I 0 W/m 12,1 C 20,4 C 0,0 km/h (0 Bft) 0,00 %
14.08.2015 03:15 20,3 C 59 % 1009,4 hPa 0,0 l/m 0,0 km/h (0 Bft) O-NO 75 0 min 0,000 mm 0,0 UV-I 0 W/m 12,0 C 20,3 C 0,0 km/h (0 Bft) 0,00 %
14.08.2015 03:20 20,3 C 59 % 1009,4 hPa 0,0 l/m 0,0 km/h (0 Bft) O 91 0 min 0,000 mm 0,0 UV-I 0 W/m 12,0 C 20,3 C 0,0 km/h (0 Bft) 0,00 %
14.08.2015 03:25 20,3 C 59 % 1009,2 hPa 0,0 l/m 0,4 km/h (0 Bft) NO 44 0 min 0,000 mm 0,0 UV-I 0 W/m 12,0 C 20,3 C 4,0 km/h (1 Bft) 0,00 %
14.08.2015 03:30 20,4 C 60 % 1009,3 hPa 0,0 l/m 0,0 km/h (0 Bft) NO 49 0 min 0,000 mm 0,0 UV-I 0 W/m 12,4 C 20,4 C 0,0 km/h (0 Bft) 0,00 %
14.08.2015 03:35 20,4 C 60 % 1009,3 hPa 0,0 l/m 0,0 km/h (0 Bft) O-SO 117 0 min 0,000 mm 0,0 UV-I 0 W/m 12,4 C 20,4 C 0,0 km/h (0 Bft) 0,00 %
14.08.2015 03:40 20,2 C 60 % 1009,4 hPa 0,0 l/m 0,0 km/h (0 Bft) O-NO 74 0 min 0,000 mm 0,0 UV-I 0 W/m 12,2 C 20,2 C 0,0 km/h (0 Bft) 0,00 %
14.08.2015 03:45 20,1 C 62 % 1009,3 hPa 0,0 l/m 0,0 km/h (0 Bft) O 93 0 min 0,000 mm 0,0 UV-I 0 W/m 12,6 C 20,1 C 0,0 km/h (0 Bft) 0,00 %
14.08.2015 03:50 19,9 C 61 % 1009,1 hPa 0,0 l/m 0,0 km/h (0 Bft) O 86 0 min 0,000 mm 0,0 UV-I 0 W/m 12,2 C 19,9 C 0,0 km/h (0 Bft) 0,00 %
14.08.2015 03:55 19,9 C 61 % 1009,2 hPa 0,0 l/m 0,0 km/h (0 Bft) O-NO 65 0 min 0,000 mm 0,0 UV-I 0 W/m 12,2 C 19,9 C 0,0 km/h (0 Bft) 0,00 %
14.08.2015 04:00 19,9 C 61 % 1009,3 hPa 0,0 l/m 0,0 km/h (0 Bft) O 80 0 min 0,000 mm 0,0 UV-I 0 W/m 12,2 C 19,9 C 0,0 km/h (0 Bft) 0,00 %
14.08.2015 04:05 19,8 C 62 % 1009,0 hPa 0,0 l/m 0,0 km/h (0 Bft) O-SO 102 0 min 0,000 mm 0,0 UV-I 0 W/m 12,3 C 19,8 C 0,0 km/h (0 Bft) 0,00 %
14.08.2015 04:10 19,7 C 62 % 1009,0 hPa 0,0 l/m 0,0 km/h (0 Bft) O-NO 67 0 min 0,000 mm 0,0 UV-I 0 W/m 12,2 C 19,7 C 0,0 km/h (0 Bft) 0,00 %
14.08.2015 04:15 19,7 C 63 % 1008,9 hPa 0,0 l/m 0,0 km/h (0 Bft) NO 56 0 min 0,000 mm 0,0 UV-I 0 W/m 12,5 C 19,7 C 0,0 km/h (0 Bft) 0,00 %
14.08.2015 04:20 19,6 C 63 % 1009,2 hPa 0,0 l/m 0,0 km/h (0 Bft) O-NO 62 0 min 0,000 mm 0,0 UV-I 0 W/m 12,4 C 19,6 C 0,0 km/h (0 Bft) 0,00 %
14.08.2015 04:25 19,5 C 63 % 1009,1 hPa 0,0 l/m 0,0 km/h (0 Bft) NO 52 0 min 0,000 mm 0,0 UV-I 0 W/m 12,3 C 19,5 C 0,0 km/h (0 Bft) 0,00 %
14.08.2015 04:30 19,4 C 64 % 1009,1 hPa 0,0 l/m 0,0 km/h (0 Bft) NO 51 0 min 0,000 mm 0,0 UV-I 0 W/m 12,4 C 19,4 C 0,0 km/h (0 Bft) 0,00 %
14.08.2015 04:35 19,3 C 64 % 1009,1 hPa 0,0 l/m 0,0 km/h (0 Bft) O-NO 62 0 min 0,000 mm 0,0 UV-I 0 W/m 12,3 C 19,3 C 0,0 km/h (0 Bft) 0,00 %
14.08.2015 04:40 19,2 C 65 % 1008,9 hPa 0,0 l/m 0,0 km/h (0 Bft) NO 49 0 min 0,000 mm 0,0 UV-I 0 W/m 12,5 C 19,2 C 0,0 km/h (0 Bft) 0,00 %
14.08.2015 04:45 19,0 C 66 % 1008,9 hPa 0,0 l/m 0,0 km/h (0 Bft) NO 53 0 min 0,000 mm 0,0 UV-I 0 W/m 12,5 C 19,0 C 0,0 km/h (0 Bft) 0,00 %
14.08.2015 04:50 18,8 C 67 % 1009,1 hPa 0,0 l/m 0,0 km/h (0 Bft) NO 46 0 min 0,000 mm 0,0 UV-I 0 W/m 12,5 C 18,8 C 0,0 km/h (0 Bft) 0,00 %
14.08.2015 04:55 18,7 C 68 % 1009,0 hPa 0,0 l/m 0,0 km/h (0 Bft) NO 53 0 min 0,000 mm 0,0 UV-I 0 W/m 12,7 C 18,7 C 0,0 km/h (0 Bft) 0,00 %
14.08.2015 05:00 18,5 C 69 % 1008,9 hPa 0,0 l/m 0,0 km/h (0 Bft) NO 36 0 min 0,000 mm 0,0 UV-I 0 W/m 12,7 C 18,5 C 0,0 km/h (0 Bft) 0,00 %
14.08.2015 05:05 18,4 C 69 % 1009,2 hPa 0,0 l/m 0,0 km/h (0 Bft) N-NO 32 0 min 0,000 mm 0,0 UV-I 0 W/m 12,6 C 18,4 C 0,0 km/h (0 Bft) 0,00 %
14.08.2015 05:10 18,1 C 70 % 1009,0 hPa 0,0 l/m 0,0 km/h (0 Bft) N 350 0 min 0,000 mm 0,0 UV-I 0 W/m 12,5 C 18,1 C 0,0 km/h (0 Bft) 0,00 %
14.08.2015 05:15 18,0 C 72 % 1009,1 hPa 0,0 l/m 0,0 km/h (0 Bft) NO 52 0 min 0,000 mm 0,0 UV-I 0 W/m 12,9 C 18,0 C 0,0 km/h (0 Bft) 0,00 %
14.08.2015 05:20 17,8 C 72 % 1009,2 hPa 0,0 l/m 0,0 km/h (0 Bft) NO 47 0 min 0,000 mm 0,0 UV-I 0 W/m 12,7 C 17,8 C 0,0 km/h (0 Bft) 0,00 %
14.08.2015 05:25 17,7 C 72 % 1009,2 hPa 0,0 l/m 0,0 km/h (0 Bft) NO 52 0 min 0,000 mm 0,0 UV-I 0 W/m 12,6 C 17,7 C 0,0 km/h (0 Bft) 0,00 %
14.08.2015 05:30 17,5 C 73 % 1009,1 hPa 0,0 l/m 0,0 km/h (0 Bft) N-NO 25 0 min 0,000 mm 0,0 UV-I 0 W/m 12,6 C 17,5 C 0,0 km/h (0 Bft) 0,00 %
14.08.2015 05:35 17,2 C 74 % 1009,2 hPa 0,0 l/m 0,0 km/h (0 Bft) N-NO 25 0 min 0,000 mm 0,0 UV-I 0 W/m 12,5 C 17,2 C 0,0 km/h (0 Bft) 0,00 %
14.08.2015 05:40 17,0 C 75 % 1009,3 hPa 0,0 l/m 0,0 km/h (0 Bft) NO 47 0 min 0,000 mm 0,0 UV-I 0 W/m 12,5 C 17,0 C 0,0 km/h (0 Bft) 0,00 %
14.08.2015 05:45 16,8 C 76 % 1009,3 hPa 0,0 l/m 0,0 km/h (0 Bft) NO 54 0 min 0,000 mm 0,0 UV-I 0 W/m 12,5 C 16,8 C 0,0 km/h (0 Bft) 0,00 %
14.08.2015 05:50 16,8 C 76 % 1009,4 hPa 0,0 l/m 0,0 km/h (0 Bft) NO 51 0 min 0,000 mm 0,0 UV-I 0 W/m 12,5 C 16,8 C 0,0 km/h (0 Bft) 0,00 %
14.08.2015 05:55 16,6 C 77 % 1009,5 hPa 0,0 l/m 0,0 km/h (0 Bft) NO 41 0 min 0,000 mm 0,0 UV-I 0 W/m 12,5 C 16,6 C 0,0 km/h (0 Bft) 0,00 %
14.08.2015 06:00 16,5 C 77 % 1009,6 hPa 0,0 l/m 0,0 km/h (0 Bft) O-NO 70 0 min 0,000 mm 0,0 UV-I 1 W/m 12,5 C 16,5 C 0,0 km/h (0 Bft) 0,00 %
14.08.2015 06:05 16,5 C 76 % 1009,8 hPa 0,0 l/m 0,0 km/h (0 Bft) N-NO 17 0 min 0,000 mm 0,0 UV-I 5 W/m 12,3 C 16,5 C 0,0 km/h (0 Bft) 0,00 %
14.08.2015 06:10 16,6 C 75 % 1009,9 hPa 0,0 l/m 0,0 km/h (0 Bft) NO 48 0 min 0,000 mm 0,0 UV-I 12 W/m 12,1 C 16,6 C 0,0 km/h (0 Bft) 0,00 %
14.08.2015 06:15 16,8 C 74 % 1009,8 hPa 0,0 l/m 0,0 km/h (0 Bft) N 353 5 min 0,000 mm 0,0 UV-I 24 W/m 12,1 C 16,8 C 0,0 km/h (0 Bft) 0,00 %
14.08.2015 06:20 16,9 C 74 % 1010,0 hPa 0,0 l/m 0,4 km/h (0 Bft) N-NW 334 5 min 0,000 mm 0,0 UV-I 36 W/m 12,2 C 16,9 C 4,0 km/h (1 Bft) 0,00 %
14.08.2015 06:25 17,1 C 73 % 1010,0 hPa 0,0 l/m 0,0 km/h (0 Bft) NO 39 5 min 0,000 mm 0,0 UV-I 51 W/m 12,2 C 17,1 C 0,0 km/h (0 Bft) 0,00 %
14.08.2015 06:30 17,4 C 73 % 1009,7 hPa 0,0 l/m 0,0 km/h (0 Bft) NO 41 5 min 0,000 mm 0,0 UV-I 67 W/m 12,5 C 17,4 C 0,0 km/h (0 Bft) 0,00 %
14.08.2015 06:35 17,7 C 71 % 1010,0 hPa 0,0 l/m 0,4 km/h (0 Bft) N-NW 334 5 min 0,000 mm 0,0 UV-I 82 W/m 12,4 C 17,7 C 4,0 km/h (1 Bft) 0,00 %
14.08.2015 06:40 18,0 C 71 % 1010,1 hPa 0,0 l/m 0,0 km/h (0 Bft) N-NO 32 5 min 0,000 mm 0,0 UV-I 96 W/m 12,7 C 18,0 C 0,0 km/h (0 Bft) 0,00 %
14.08.2015 06:45 18,3 C 69 % 1010,1 hPa 0,0 l/m 0,0 km/h (0 Bft) NO 36 5 min 0,000 mm 0,0 UV-I 110 W/m 12,5 C 18,3 C 0,0 km/h (0 Bft) 0,00 %
14.08.2015 06:50 18,5 C 68 % 1010,1 hPa 0,0 l/m 0,0 km/h (0 Bft) O-NO 58 5 min 0,000 mm 0,0 UV-I 126 W/m 12,5 C 18,5 C 0,0 km/h (0 Bft) 0,00 %
14.08.2015 06:55 18,9 C 66 % 1010,0 hPa 0,0 l/m 0,0 km/h (0 Bft) O-NO 57 5 min 0,000 mm 0,0 UV-I 144 W/m 12,4 C 18,9 C 0,0 km/h (0 Bft) 0,00 %
14.08.2015 07:00 19,2 C 64 % 1010,1 hPa 0,0 l/m 0,0 km/h (0 Bft) NO 49 5 min 0,000 mm 0,0 UV-I 160 W/m 12,2 C 19,2 C 0,0 km/h (0 Bft) 0,00 %
14.08.2015 07:05 19,6 C 62 % 1010,1 hPa 0,0 l/m 0,7 km/h (0 Bft) N-NW 337 5 min 0,000 mm 0,0 UV-I 172 W/m 12,1 C 19,6 C 4,0 km/h (1 Bft) 0,00 %
14.08.2015 07:10 19,9 C 61 % 1010,1 hPa 0,0 l/m 0,7 km/h (0 Bft) N-NW 340 5 min 0,000 mm 0,0 UV-I 181 W/m 12,2 C 19,9 C 4,0 km/h (1 Bft) 0,00 %
14.08.2015 07:15 20,2 C 61 % 1010,3 hPa 0,0 l/m 0,0 km/h (0 Bft) N 0 5 min 0,000 mm 1,0 UV-I 189 W/m 12,4 C 20,2 C 0,0 km/h (0 Bft) 0,00 %
14.08.2015 07:20 20,3 C 61 % 1010,1 hPa 0,0 l/m 0,0 km/h (0 Bft) N 354 5 min 0,000 mm 1,0 UV-I 195 W/m 12,5 C 20,3 C 0,0 km/h (0 Bft) 0,00 %
14.08.2015 07:25 20,5 C 60 % 1010,3 hPa 0,0 l/m 0,7 km/h (0 Bft) N-NO 32 5 min 0,000 mm 1,0 UV-I 200 W/m 12,5 C 20,5 C 4,0 km/h (1 Bft) 0,00 %
14.08.2015 07:30 20,8 C 59 % 1010,4 hPa 0,0 l/m 0,7 km/h (0 Bft) O-NO 60 5 min 0,000 mm 1,0 UV-I 203 W/m 12,5 C 20,8 C 4,0 km/h (1 Bft) 0,00 %
14.08.2015 07:35 21,0 C 59 % 1010,4 hPa 0,0 l/m 0,7 km/h (0 Bft) W-NW 298 5 min 0,000 mm 1,0 UV-I 205 W/m 12,7 C 21,0 C 4,0 km/h (1 Bft) 0,00 %
14.08.2015 07:40 21,2 C 58 % 1010,3 hPa 0,0 l/m 2,2 km/h (1 Bft) SW 228 5 min 0,000 mm 1,0 UV-I 208 W/m 12,6 C 21,2 C 4,0 km/h (1 Bft) 0,00 %
14.08.2015 07:45 21,4 C 58 % 1010,4 hPa 0,0 l/m 1,4 km/h (1 Bft) W-SW 256 5 min 0,000 mm 1,0 UV-I 212 W/m 12,8 C 21,4 C 4,0 km/h (1 Bft) 0,00 %
14.08.2015 07:50 21,8 C 56 % 1010,4 hPa 0,0 l/m 0,0 km/h (0 Bft) W-NW 299 5 min 0,000 mm 1,0 UV-I 217 W/m 12,6 C 21,8 C 0,0 km/h (0 Bft) 0,00 %
14.08.2015 07:55 22,3 C 55 % 1010,4 hPa 0,0 l/m 1,4 km/h (1 Bft) N-NW 335 5 min 0,000 mm 1,0 UV-I 223 W/m 12,8 C 22,3 C 4,0 km/h (1 Bft) 0,00 %
14.08.2015 08:00 22,7 C 54 % 1010,6 hPa 0,0 l/m 0,0 km/h (0 Bft) N-NO 17 5 min 0,000 mm 1,0 UV-I 228 W/m 12,9 C 22,7 C 0,0 km/h (0 Bft) 0,00 %
14.08.2015 08:05 22,9 C 53 % 1010,7 hPa 0,0 l/m 0,0 km/h (0 Bft) N-NW 341 5 min 0,000 mm 1,0 UV-I 234 W/m 12,8 C 22,9 C 0,0 km/h (0 Bft) 0,00 %
14.08.2015 08:10 23,2 C 53 % 1010,6 hPa 0,0 l/m 0,7 km/h (0 Bft) NO 42 5 min 0,000 mm 1,0 UV-I 241 W/m 13,1 C 23,2 C 4,0 km/h (1 Bft) 0,00 %
14.08.2015 08:15 23,5 C 52 % 1010,8 hPa 0,0 l/m 5,4 km/h (1 Bft) W-SW 256 5 min 0,000 mm 1,0 UV-I 247 W/m 13,1 C 23,5 C 7,9 km/h (2 Bft) 0,00 %
14.08.2015 08:20 23,9 C 52 % 1010,7 hPa 0,0 l/m 2,2 km/h (1 Bft) NW 309 5 min 0,000 mm 1,0 UV-I 254 W/m 13,4 C 23,9 C 4,0 km/h (1 Bft) 0,00 %
14.08.2015 08:25 24,3 C 51 % 1011,0 hPa 0,0 l/m 4,0 km/h (1 Bft) W-SW 256 5 min 0,000 mm 1,0 UV-I 264 W/m 13,5 C 24,3 C 4,0 km/h (1 Bft) 0,00 %
14.08.2015 08:30 24,6 C 51 % 1010,9 hPa 0,0 l/m 0,0 km/h (0 Bft) NO 34 5 min 0,000 mm 1,0 UV-I 271 W/m 13,8 C 24,6 C 0,0 km/h (0 Bft) 0,00 %
14.08.2015 08:35 25,0 C 50 % 1010,8 hPa 0,0 l/m 3,2 km/h (1 Bft) N-NW 333 5 min 0,000 mm 1,0 UV-I 280 W/m 13,8 C 25,0 C 4,0 km/h (1 Bft) 0,00 %
14.08.2015 08:40 25,3 C 51 % 1010,8 hPa 0,0 l/m 0,0 km/h (0 Bft) N 357 5 min 0,000 mm 1,0 UV-I 290 W/m 14,4 C 25,3 C 0,0 km/h (0 Bft) 0,00 %
14.08.2015 08:45 25,6 C 50 % 1010,9 hPa 0,0 l/m 1,8 km/h (1 Bft) NW 312 5 min 0,000 mm 1,0 UV-I 300 W/m 14,4 C 25,6 C 4,0 km/h (1 Bft) 0,00 %
14.08.2015 08:50 25,9 C 49 % 1011,0 hPa 0,0 l/m 1,8 km/h (1 Bft) W-NW 282 5 min 0,000 mm 1,0 UV-I 307 W/m 14,4 C 25,9 C 4,0 km/h (1 Bft) 0,00 %
14.08.2015 08:55 26,1 C 48 % 1010,8 hPa 0,0 l/m 0,0 km/h (0 Bft) N 352 5 min 0,000 mm 1,0 UV-I 318 W/m 14,2 C 26,1 C 0,0 km/h (0 Bft) 0,00 %
14.08.2015 09:00 26,3 C 49 % 1010,9 hPa 0,0 l/m 2,2 km/h (1 Bft) W-SW 256 5 min 0,000 mm 1,0 UV-I 326 W/m 14,7 C 26,3 C 7,9 km/h (2 Bft) 0,00 %
14.08.2015 09:05 26,5 C 48 % 1010,9 hPa 0,0 l/m 0,0 km/h (0 Bft) NO 42 5 min 0,000 mm 1,0 UV-I 336 W/m 14,6 C 26,5 C 0,0 km/h (0 Bft) 0,00 %
14.08.2015 09:10 26,8 C 46 % 1011,0 hPa 0,0 l/m 0,0 km/h (0 Bft) N-NO 24 5 min 0,000 mm 1,0 UV-I 348 W/m 14,2 C 26,8 C 0,0 km/h (0 Bft) 0,00 %
14.08.2015 09:15 27,3 C 46 % 1010,8 hPa 0,0 l/m 0,0 km/h (0 Bft) N-NW 348 5 min 0,000 mm 1,0 UV-I 359 W/m 14,6 C 27,3 C 0,0 km/h (0 Bft) 0,00 %
14.08.2015 09:20 27,6 C 47 % 1011,0 hPa 0,0 l/m 0,0 km/h (0 Bft) O 101 5 min 0,000 mm 2,0 UV-I 370 W/m 15,3 C 27,6 C 0,0 km/h (0 Bft) 0,00 %
14.08.2015 09:25 27,9 C 44 % 1010,9 hPa 0,0 l/m 0,7 km/h (0 Bft) W-SW 256 5 min 0,000 mm 2,0 UV-I 378 W/m 14,5 C 27,9 C 4,0 km/h (1 Bft) 0,00 %
14.08.2015 09:30 28,6 C 42 % 1011,0 hPa 0,0 l/m 0,0 km/h (0 Bft) N-NW 345 5 min 0,000 mm 2,0 UV-I 394 W/m 14,4 C 28,6 C 0,0 km/h (0 Bft) 0,00 %
14.08.2015 09:35 28,8 C 45 % 1010,9 hPa 0,0 l/m 4,3 km/h (1 Bft) W 276 5 min 0,000 mm 2,0 UV-I 403 W/m 15,7 C 28,8 C 7,9 km/h (2 Bft) 0,00 %
14.08.2015 09:40 28,5 C 45 % 1011,0 hPa 0,0 l/m 1,4 km/h (1 Bft) N-NW 339 5 min 0,000 mm 2,0 UV-I 415 W/m 15,4 C 28,5 C 4,0 km/h (1 Bft) 0,00 %
14.08.2015 09:45 28,1 C 44 % 1010,9 hPa 0,0 l/m 9,4 km/h (2 Bft) W-SW 255 5 min 0,000 mm 2,0 UV-I 427 W/m 14,7 C 27,7 C 11,9 km/h (2 Bft) 0,00 %
14.08.2015 09:50 28,1 C 44 % 1010,8 hPa 0,0 l/m 0,0 km/h (0 Bft) NO 48 5 min 0,000 mm 2,0 UV-I 438 W/m 14,7 C 28,1 C 0,0 km/h (0 Bft) 0,00 %
14.08.2015 09:55 28,4 C 42 % 1010,8 hPa 0,0 l/m 3,2 km/h (1 Bft) N-NW 347 5 min 0,000 mm 2,0 UV-I 455 W/m 14,2 C 28,4 C 7,9 km/h (2 Bft) 0,00 %
14.08.2015 10:00 28,8 C 42 % 1010,9 hPa 0,0 l/m 0,0 km/h (0 Bft) W-NW 296 5 min 0,000 mm 2,0 UV-I 466 W/m 14,6 C 28,8 C 0,0 km/h (0 Bft) 0,00 %
14.08.2015 10:05 29,1 C 42 % 1010,9 hPa 0,0 l/m 0,0 km/h (0 Bft) N-NW 347 5 min 0,000 mm 2,0 UV-I 478 W/m 14,9 C 29,1 C 0,0 km/h (0 Bft) 0,00 %
14.08.2015 10:10 29,3 C 42 % 1010,9 hPa 0,0 l/m 0,7 km/h (0 Bft) NW 312 5 min 0,000 mm 2,0 UV-I 490 W/m 15,0 C 29,3 C 4,0 km/h (1 Bft) 0,00 %
14.08.2015 10:15 29,4 C 42 % 1010,9 hPa 0,0 l/m 0,0 km/h (0 Bft) NO 40 5 min 0,000 mm 2,0 UV-I 500 W/m 15,1 C 29,4 C 0,0 km/h (0 Bft) 0,00 %
14.08.2015 10:20 29,5 C 41 % 1010,9 hPa 0,0 l/m 0,4 km/h (0 Bft) NW 312 5 min 0,000 mm 2,0 UV-I 516 W/m 14,8 C 29,5 C 4,0 km/h (1 Bft) 0,00 %
14.08.2015 10:25 29,7 C 41 % 1010,8 hPa 0,0 l/m 0,0 km/h (0 Bft) N 351 5 min 0,000 mm 2,0 UV-I 531 W/m 15,0 C 29,7 C 0,0 km/h (0 Bft) 0,00 %
14.08.2015 10:30 29,8 C 41 % 1010,9 hPa 0,0 l/m 1,4 km/h (1 Bft) N 350 5 min 0,000 mm 2,0 UV-I 545 W/m 15,1 C 29,8 C 4,0 km/h (1 Bft) 0,00 %
14.08.2015 10:35 29,9 C 40 % 1010,7 hPa 0,0 l/m 0,0 km/h (0 Bft) NO 41 5 min 0,000 mm 2,0 UV-I 562 W/m 14,8 C 29,9 C 0,0 km/h (0 Bft) 0,00 %
14.08.2015 10:40 30,2 C 39 % 1010,7 hPa 0,0 l/m 0,0 km/h (0 Bft) W-SW 256 5 min 0,000 mm 2,0 UV-I 576 W/m 14,7 C 30,2 C 0,0 km/h (0 Bft) 0,00 %
14.08.2015 10:45 30,7 C 39 % 1010,7 hPa 0,0 l/m 6,5 km/h (2 Bft) W-NW 293 5 min 0,000 mm 2,0 UV-I 586 W/m 15,1 C 30,7 C 7,9 km/h (2 Bft) 0,00 %
14.08.2015 10:50 30,9 C 39 % 1010,6 hPa 0,0 l/m 0,0 km/h (0 Bft) N 351 5 min 0,000 mm 3,0 UV-I 596 W/m 15,3 C 30,9 C 0,0 km/h (0 Bft) 0,00 %
14.08.2015 10:55 31,0 C 38 % 1010,3 hPa 0,0 l/m 0,0 km/h (0 Bft) W 274 5 min 0,000 mm 3,0 UV-I 614 W/m 15,0 C 31,0 C 0,0 km/h (0 Bft) 0,00 %
14.08.2015 11:00 31,3 C 36 % 1010,5 hPa 0,0 l/m 0,0 km/h (0 Bft) W-NW 302 5 min 0,000 mm 3,0 UV-I 627 W/m 14,4 C 31,3 C 0,0 km/h (0 Bft) 0,00 %
14.08.2015 11:05 31,5 C 37 % 1010,4 hPa 0,0 l/m 0,0 km/h (0 Bft) N-NO 33 5 min 0,000 mm 3,0 UV-I 638 W/m 15,0 C 31,5 C 0,0 km/h (0 Bft) 0,00 %
14.08.2015 11:10 31,8 C 37 % 1010,4 hPa 0,0 l/m 0,0 km/h (0 Bft) NO 44 5 min 0,000 mm 3,0 UV-I 654 W/m 15,3 C 31,8 C 0,0 km/h (0 Bft) 0,00 %
14.08.2015 11:15 32,2 C 37 % 1010,3 hPa 0,0 l/m 0,0 km/h (0 Bft) N-NW 346 5 min 0,000 mm 3,0 UV-I 671 W/m 15,6 C 32,2 C 0,0 km/h (0 Bft) 0,00 %
14.08.2015 11:20 32,4 C 36 % 1010,5 hPa 0,0 l/m 0,0 km/h (0 Bft) O-NO 65 5 min 0,000 mm 3,0 UV-I 677 W/m 15,4 C 32,4 C 0,0 km/h (0 Bft) 0,00 %
14.08.2015 11:25 32,1 C 38 % 1010,2 hPa 0,0 l/m 0,0 km/h (0 Bft) N-NW 342 5 min 0,000 mm 3,0 UV-I 685 W/m 16,0 C 32,1 C 0,0 km/h (0 Bft) 0,00 %
14.08.2015 11:30 31,7 C 39 % 1010,2 hPa 0,0 l/m 0,0 km/h (0 Bft) NO 47 5 min 0,000 mm 3,0 UV-I 706 W/m 16,0 C 31,7 C 0,0 km/h (0 Bft) 0,00 %
14.08.2015 11:35 31,7 C 36 % 1010,1 hPa 0,0 l/m 0,0 km/h (0 Bft) SO 128 5 min 0,000 mm 3,0 UV-I 722 W/m 14,8 C 31,7 C 0,0 km/h (0 Bft) 0,00 %
14.08.2015 11:40 32,1 C 37 % 1010,0 hPa 0,0 l/m 0,0 km/h (0 Bft) O 82 5 min 0,000 mm 3,0 UV-I 734 W/m 15,5 C 32,1 C 0,0 km/h (0 Bft) 0,00 %
14.08.2015 11:45 32,3 C 36 % 1010,0 hPa 0,0 l/m 0,0 km/h (0 Bft) N-NO 29 5 min 0,000 mm 3,0 UV-I 743 W/m 15,3 C 32,3 C 0,0 km/h (0 Bft) 0,00 %
14.08.2015 11:50 32,3 C 38 % 1009,8 hPa 0,0 l/m 0,7 km/h (0 Bft) NW 313 5 min 0,000 mm 3,0 UV-I 751 W/m 16,1 C 32,3 C 4,0 km/h (1 Bft) 0,00 %
14.08.2015 11:55 32,1 C 36 % 1009,9 hPa 0,0 l/m 4,3 km/h (1 Bft) W-SW 248 5 min 0,000 mm 3,0 UV-I 750 W/m 15,1 C 32,1 C 7,9 km/h (2 Bft) 0,00 %
14.08.2015 12:00 31,9 C 38 % 1009,7 hPa 0,0 l/m 0,0 km/h (0 Bft) NO 41 5 min 0,000 mm 3,0 UV-I 762 W/m 15,8 C 31,9 C 0,0 km/h (0 Bft) 0,00 %
14.08.2015 12:05 31,9 C 36 % 1009,8 hPa 0,0 l/m 0,0 km/h (0 Bft) N-NO 15 5 min 0,000 mm 4,0 UV-I 767 W/m 14,9 C 31,9 C 0,0 km/h (0 Bft) 0,00 %
14.08.2015 12:10 32,1 C 37 % 1009,8 hPa 0,0 l/m 2,2 km/h (1 Bft) N-NW 348 5 min 0,000 mm 4,0 UV-I 780 W/m 15,5 C 32,1 C 4,0 km/h (1 Bft) 0,00 %
14.08.2015 12:15 32,1 C 36 % 1009,7 hPa 0,0 l/m 0,0 km/h (0 Bft) NO 55 5 min 0,000 mm 4,0 UV-I 778 W/m 15,1 C 32,1 C 0,0 km/h (0 Bft) 0,00 %
14.08.2015 12:20 32,0 C 36 % 1009,9 hPa 0,0 l/m 1,8 km/h (1 Bft) W-NW 297 5 min 0,000 mm 4,0 UV-I 786 W/m 15,0 C 32,0 C 4,0 km/h (1 Bft) 0,00 %
14.08.2015 12:25 31,7 C 37 % 1009,5 hPa 0,0 l/m 0,0 km/h (0 Bft) N-NO 28 5 min 0,000 mm 4,0 UV-I 786 W/m 15,2 C 31,7 C 0,0 km/h (0 Bft) 0,00 %
14.08.2015 12:30 31,6 C 36 % 1009,5 hPa 0,0 l/m 0,0 km/h (0 Bft) NO 43 5 min 0,000 mm 4,0 UV-I 793 W/m 14,7 C 31,6 C 0,0 km/h (0 Bft) 0,00 %
14.08.2015 12:35 31,8 C 35 % 1009,6 hPa 0,0 l/m 5,8 km/h (2 Bft) N 350 5 min 0,000 mm 4,0 UV-I 799 W/m 14,4 C 31,8 C 7,9 km/h (2 Bft) 0,00 %
14.08.2015 12:40 31,8 C 33 % 1009,4 hPa 0,0 l/m 0,0 km/h (0 Bft) NO 45 5 min 0,000 mm 4,0 UV-I 803 W/m 13,5 C 31,8 C 0,0 km/h (0 Bft) 0,00 %
14.08.2015 12:45 31,7 C 35 % 1009,5 hPa 0,0 l/m 0,0 km/h (0 Bft) NO 46 5 min 0,000 mm 4,0 UV-I 811 W/m 14,3 C 31,7 C 0,0 km/h (0 Bft) 0,00 %
14.08.2015 12:50 31,9 C 34 % 1009,3 hPa 0,0 l/m 4,7 km/h (1 Bft) NW 325 5 min 0,000 mm 4,0 UV-I 818 W/m 14,1 C 31,9 C 7,9 km/h (2 Bft) 0,00 %
14.08.2015 12:55 32,1 C 34 % 1009,2 hPa 0,0 l/m 0,0 km/h (0 Bft) NO 38 5 min 0,000 mm 4,0 UV-I 830 W/m 14,2 C 32,1 C 0,0 km/h (0 Bft) 0,00 %
14.08.2015 13:00 32,2 C 34 % 1009,2 hPa 0,0 l/m 0,4 km/h (0 Bft) NO 39 5 min 0,000 mm 4,0 UV-I 836 W/m 14,3 C 32,2 C 4,0 km/h (1 Bft) 0,00 %
14.08.2015 13:05 32,4 C 34 % 1009,2 hPa 0,0 l/m 4,3 km/h (1 Bft) SO 145 5 min 0,000 mm 4,0 UV-I 834 W/m 14,5 C 32,4 C 7,9 km/h (2 Bft) 0,00 %
14.08.2015 13:10 32,5 C 34 % 1009,0 hPa 0,0 l/m 0,7 km/h (0 Bft) N-NW 343 5 min 0,000 mm 4,0 UV-I 833 W/m 14,6 C 32,5 C 4,0 km/h (1 Bft) 0,00 %
14.08.2015 13:15 32,3 C 34 % 1008,9 hPa 0,0 l/m 1,8 km/h (1 Bft) N-NO 20 5 min 0,000 mm 4,0 UV-I 831 W/m 14,4 C 32,3 C 4,0 km/h (1 Bft) 0,00 %
14.08.2015 13:20 32,1 C 33 % 1008,8 hPa 0,0 l/m 2,2 km/h (1 Bft) N 349 5 min 0,000 mm 4,0 UV-I 834 W/m 13,8 C 32,1 C 4,0 km/h (1 Bft) 0,00 %
14.08.2015 13:25 32,1 C 34 % 1008,8 hPa 0,0 l/m 0,7 km/h (0 Bft) N-NO 32 5 min 0,000 mm 4,0 UV-I 846 W/m 14,2 C 32,1 C 4,0 km/h (1 Bft) 0,00 %
14.08.2015 13:30 32,2 C 34 % 1008,6 hPa 0,0 l/m 6,5 km/h (2 Bft) NW 320 5 min 0,000 mm 4,0 UV-I 841 W/m 14,3 C 32,2 C 11,9 km/h (2 Bft) 0,00 %
14.08.2015 13:35 32,3 C 34 % 1008,7 hPa 0,0 l/m 0,0 km/h (0 Bft) NO 42 5 min 0,000 mm 4,0 UV-I 846 W/m 14,4 C 32,3 C 0,0 km/h (0 Bft) 0,00 %
14.08.2015 13:40 32,3 C 34 % 1008,7 hPa 0,0 l/m 1,8 km/h (1 Bft) W 265 5 min 0,000 mm 4,0 UV-I 858 W/m 14,4 C 32,3 C 4,0 km/h (1 Bft) 0,00 %
14.08.2015 13:45 32,5 C 33 % 1008,4 hPa 0,0 l/m 4,3 km/h (1 Bft) N-NO 14 5 min 0,000 mm 4,0 UV-I 859 W/m 14,1 C 32,5 C 7,9 km/h (2 Bft) 0,00 %
14.08.2015 13:50 32,6 C 33 % 1008,6 hPa 0,0 l/m 0,0 km/h (0 Bft) O-NO 70 5 min 0,000 mm 4,0 UV-I 860 W/m 14,2 C 32,6 C 0,0 km/h (0 Bft) 0,00 %
14.08.2015 13:55 32,7 C 33 % 1008,3 hPa 0,0 l/m 2,9 km/h (1 Bft) O 97 5 min 0,000 mm 4,0 UV-I 859 W/m 14,3 C 32,7 C 4,0 km/h (1 Bft) 0,00 %
14.08.2015 14:00 32,8 C 32 % 1008,5 hPa 0,0 l/m 2,2 km/h (1 Bft) O-SO 119 5 min 0,000 mm 4,0 UV-I 867 W/m 13,9 C 32,8 C 4,0 km/h (1 Bft) 0,00 %
14.08.2015 14:05 32,9 C 31 % 1008,1 hPa 0,0 l/m 0,0 km/h (0 Bft) O 79 5 min 0,000 mm 4,0 UV-I 879 W/m 13,5 C 32,9 C 0,0 km/h (0 Bft) 0,00 %
14.08.2015 14:10 33,1 C 32 % 1008,1 hPa 0,0 l/m 0,0 km/h (0 Bft) NO 48 5 min 0,000 mm 3,0 UV-I 875 W/m 14,2 C 33,1 C 0,0 km/h (0 Bft) 0,00 %
14.08.2015 14:15 33,2 C 31 % 1008,2 hPa 0,0 l/m 1,4 km/h (1 Bft) N 353 5 min 0,000 mm 3,0 UV-I 866 W/m 13,8 C 33,2 C 4,0 km/h (1 Bft) 0,00 %
14.08.2015 14:20 33,1 C 32 % 1008,1 hPa 0,0 l/m 2,9 km/h (1 Bft) O-SO 107 5 min 0,000 mm 3,0 UV-I 877 W/m 14,2 C 33,1 C 4,0 km/h (1 Bft) 0,00 %
14.08.2015 14:25 33,0 C 31 % 1008,0 hPa 0,0 l/m 5,8 km/h (2 Bft) W-NW 290 5 min 0,000 mm 3,0 UV-I 889 W/m 13,6 C 33,0 C 7,9 km/h (2 Bft) 0,00 %
14.08.2015 14:30 33,2 C 31 % 1008,0 hPa 0,0 l/m 1,4 km/h (1 Bft) S 190 5 min 0,000 mm 3,0 UV-I 884 W/m 13,8 C 33,2 C 4,0 km/h (1 Bft) 0,00 %
14.08.2015 14:35 33,5 C 31 % 1007,6 hPa 0,0 l/m 2,9 km/h (1 Bft) SW 218 5 min 0,000 mm 3,0 UV-I 876 W/m 14,0 C 33,5 C 4,0 km/h (1 Bft) 0,00 %
14.08.2015 14:40 33,6 C 31 % 1007,7 hPa 0,0 l/m 0,0 km/h (0 Bft) SO 131 5 min 0,000 mm 3,0 UV-I 893 W/m 14,1 C 33,6 C 0,0 km/h (0 Bft) 0,00 %
14.08.2015 14:45 33,6 C 31 % 1007,7 hPa 0,0 l/m 2,2 km/h (1 Bft) O 101 5 min 0,000 mm 3,0 UV-I 883 W/m 14,1 C 33,6 C 4,0 km/h (1 Bft) 0,00 %
14.08.2015 14:50 33,7 C 30 % 1007,6 hPa 0,0 l/m 5,8 km/h (2 Bft) O 80 5 min 0,000 mm 3,0 UV-I 882 W/m 13,7 C 33,7 C 7,9 km/h (2 Bft) 0,00 %
14.08.2015 14:55 33,9 C 29 % 1007,4 hPa 0,0 l/m 0,0 km/h (0 Bft) N 11 5 min 0,000 mm 3,0 UV-I 885 W/m 13,3 C 33,9 C 0,0 km/h (0 Bft) 0,00 %
14.08.2015 15:00 34,1 C 28 % 1007,0 hPa 0,0 l/m 7,2 km/h (2 Bft) SO 129 5 min 0,000 mm 3,0 UV-I 890 W/m 13,0 C 34,1 C 11,9 km/h (2 Bft) 0,00 %
14.08.2015 15:05 34,1 C 29 % 1007,1 hPa 0,0 l/m 0,4 km/h (0 Bft) O-NO 67 5 min 0,000 mm 3,0 UV-I 881 W/m 13,5 C 34,1 C 4,0 km/h (1 Bft) 0,00 %
14.08.2015 15:10 33,8 C 29 % 1007,2 hPa 0,0 l/m 0,0 km/h (0 Bft) O 98 5 min 0,000 mm 3,0 UV-I 833 W/m 13,2 C 33,8 C 0,0 km/h (0 Bft) 0,00 %
14.08.2015 15:15 33,7 C 29 % 1007,1 hPa 0,0 l/m 0,0 km/h (0 Bft) O 83 5 min 0,000 mm 3,0 UV-I 880 W/m 13,2 C 33,7 C 0,0 km/h (0 Bft) 0,00 %
14.08.2015 15:20 33,8 C 29 % 1007,0 hPa 0,0 l/m 4,3 km/h (1 Bft) SO 136 5 min 0,000 mm 3,0 UV-I 856 W/m 13,2 C 33,8 C 7,9 km/h (2 Bft) 0,00 %
14.08.2015 15:25 33,9 C 29 % 1006,9 hPa 0,0 l/m 0,0 km/h (0 Bft) W-NW 292 5 min 0,000 mm 3,0 UV-I 868 W/m 13,3 C 33,9 C 0,0 km/h (0 Bft) 0,00 %
14.08.2015 15:30 33,9 C 27 % 1006,8 hPa 0,0 l/m 0,0 km/h (0 Bft) O-NO 76 5 min 0,000 mm 3,0 UV-I 874 W/m 12,2 C 33,9 C 0,0 km/h (0 Bft) 0,00 %
14.08.2015 15:35 34,0 C 27 % 1006,4 hPa 0,0 l/m 2,9 km/h (1 Bft) O-SO 111 5 min 0,000 mm 3,0 UV-I 869 W/m 12,3 C 34,0 C 4,0 km/h (1 Bft) 0,00 %
14.08.2015 15:40 34,1 C 27 % 1006,5 hPa 0,0 l/m 0,0 km/h (0 Bft) O 100 5 min 0,000 mm 2,0 UV-I 857 W/m 12,4 C 34,1 C 0,0 km/h (0 Bft) 0,00 %
14.08.2015 15:45 34,2 C 25 % 1006,4 hPa 0,0 l/m 0,7 km/h (0 Bft) O-NO 60 5 min 0,000 mm 2,0 UV-I 854 W/m 11,3 C 34,2 C 4,0 km/h (1 Bft) 0,00 %
14.08.2015 15:50 34,2 C 25 % 1006,2 hPa 0,0 l/m 0,4 km/h (0 Bft) NO 35 5 min 0,000 mm 2,0 UV-I 854 W/m 11,3 C 34,2 C 4,0 km/h (1 Bft) 0,00 %
14.08.2015 15:55 34,2 C 26 % 1006,1 hPa 0,0 l/m 0,0 km/h (0 Bft) N-NO 29 5 min 0,000 mm 2,0 UV-I 844 W/m 11,9 C 34,2 C 0,0 km/h (0 Bft) 0,00 %
14.08.2015 16:00 34,1 C 26 % 1006,0 hPa 0,0 l/m 11,5 km/h (2 Bft) O 97 5 min 0,000 mm 2,0 UV-I 839 W/m 11,8 C 34,1 C 19,8 km/h (3 Bft) 0,00 %
14.08.2015 16:05 34,1 C 25 % 1006,0 hPa 0,0 l/m 2,2 km/h (1 Bft) O-NO 65 5 min 0,000 mm 2,0 UV-I 824 W/m 11,2 C 34,1 C 4,0 km/h (1 Bft) 0,00 %
14.08.2015 16:10 34,1 C 27 % 1005,8 hPa 0,0 l/m 0,0 km/h (0 Bft) O-NO 71 5 min 0,000 mm 1,0 UV-I 823 W/m 12,4 C 34,1 C 0,0 km/h (0 Bft) 0,00 %
14.08.2015 16:15 33,9 C 25 % 1005,6 hPa 0,0 l/m 1,8 km/h (1 Bft) N-NW 343 5 min 0,000 mm 1,0 UV-I 826 W/m 11,1 C 33,9 C 4,0 km/h (1 Bft) 0,00 %
14.08.2015 16:20 34,1 C 24 % 1005,7 hPa 0,0 l/m 4,3 km/h (1 Bft) O-SO 111 5 min 0,000 mm 1,0 UV-I 811 W/m 10,6 C 34,1 C 7,9 km/h (2 Bft) 0,00 %
14.08.2015 16:25 34,2 C 24 % 1005,7 hPa 0,0 l/m 5,4 km/h (1 Bft) O-SO 118 5 min 0,000 mm 1,0 UV-I 806 W/m 10,7 C 34,2 C 7,9 km/h (2 Bft) 0,00 %
14.08.2015 16:30 34,3 C 24 % 1005,3 hPa 0,0 l/m 5,4 km/h (1 Bft) NO 52 5 min 0,000 mm 1,0 UV-I 800 W/m 10,8 C 34,3 C 7,9 km/h (2 Bft) 0,00 %
14.08.2015 16:35 34,4 C 24 % 1005,2 hPa 0,0 l/m 9,0 km/h (2 Bft) O 92 5 min 0,000 mm 1,0 UV-I 780 W/m 10,9 C 34,4 C 11,9 km/h (2 Bft) 0,00 %
14.08.2015 16:40 34,3 C 24 % 1005,1 hPa 0,0 l/m 3,2 km/h (1 Bft) O 80 5 min 0,000 mm 1,0 UV-I 780 W/m 10,8 C 34,3 C 7,9 km/h (2 Bft) 0,00 %
14.08.2015 16:45 34,2 C 24 % 1005,1 hPa 0,0 l/m 0,0 km/h (0 Bft) N 351 5 min 0,000 mm 1,0 UV-I 762 W/m 10,7 C 34,2 C 0,0 km/h (0 Bft) 0,00 %
14.08.2015 16:50 34,2 C 24 % 1005,1 hPa 0,0 l/m 5,4 km/h (1 Bft) O 93 5 min 0,000 mm 1,0 UV-I 750 W/m 10,7 C 34,2 C 7,9 km/h (2 Bft) 0,00 %
14.08.2015 16:55 34,2 C 23 % 1005,0 hPa 0,0 l/m 0,7 km/h (0 Bft) N 6 5 min 0,000 mm 1,0 UV-I 743 W/m 10,1 C 34,2 C 4,0 km/h (1 Bft) 0,00 %
14.08.2015 17:00 34,2 C 24 % 1004,9 hPa 0,0 l/m 2,2 km/h (1 Bft) O-SO 118 5 min 0,000 mm 1,0 UV-I 714 W/m 10,7 C 34,2 C 4,0 km/h (1 Bft) 0,00 %
14.08.2015 17:05 34,1 C 24 % 1005,0 hPa 0,0 l/m 2,9 km/h (1 Bft) N-NO 23 5 min 0,000 mm 1,0 UV-I 710 W/m 10,6 C 34,1 C 7,9 km/h (2 Bft) 0,00 %
14.08.2015 17:10 34,0 C 25 % 1004,7 hPa 0,0 l/m 4,3 km/h (1 Bft) O-SO 107 5 min 0,000 mm 1,0 UV-I 706 W/m 11,2 C 34,0 C 7,9 km/h (2 Bft) 0,00 %
14.08.2015 17:15 33,9 C 25 % 1004,7 hPa 0,0 l/m 0,0 km/h (0 Bft) O 88 5 min 0,000 mm 1,0 UV-I 703 W/m 11,1 C 33,9 C 0,0 km/h (0 Bft) 0,00 %
14.08.2015 17:20 33,9 C 23 % 1004,7 hPa 0,0 l/m 0,7 km/h (0 Bft) O-NO 63 5 min 0,000 mm 1,0 UV-I 685 W/m 9,8 C 33,9 C 4,0 km/h (1 Bft) 0,00 %
14.08.2015 17:25 34,0 C 23 % 1004,6 hPa 0,0 l/m 4,7 km/h (1 Bft) O 99 5 min 0,000 mm 1,0 UV-I 665 W/m 9,9 C 34,0 C 7,9 km/h (2 Bft) 0,00 %
14.08.2015 17:30 34,0 C 23 % 1004,6 hPa 0,0 l/m 0,0 km/h (0 Bft) O-NO 75 5 min 0,000 mm 1,0 UV-I 648 W/m 9,9 C 34,0 C 0,0 km/h (0 Bft) 0,00 %
14.08.2015 17:35 34,1 C 23 % 1004,4 hPa 0,0 l/m 6,8 km/h (2 Bft) O 94 5 min 0,000 mm 1,0 UV-I 646 W/m 10,0 C 34,1 C 11,9 km/h (2 Bft) 0,00 %
14.08.2015 17:40 34,2 C 23 % 1004,4 hPa 0,0 l/m 0,0 km/h (0 Bft) O-NO 68 5 min 0,000 mm 1,0 UV-I 638 W/m 10,1 C 34,2 C 0,0 km/h (0 Bft) 0,00 %
14.08.2015 17:45 34,3 C 22 % 1004,3 hPa 0,0 l/m 0,0 km/h (0 Bft) O-NO 78 5 min 0,000 mm 1,0 UV-I 626 W/m 9,5 C 34,3 C 0,0 km/h (0 Bft) 0,00 %
14.08.2015 17:50 34,4 C 22 % 1004,4 hPa 0,0 l/m 4,3 km/h (1 Bft) SO 138 5 min 0,000 mm 1,0 UV-I 610 W/m 9,6 C 34,4 C 7,9 km/h (2 Bft) 0,00 %
14.08.2015 17:56 34,4 C 22 % 1004,2 hPa 0,0 l/m 0,7 km/h (0 Bft) O 82 6 min 0,000 mm 1,0 UV-I 589 W/m 9,6 C 34,4 C 4,0 km/h (1 Bft) 0,00 %
14.08.2015 18:01 34,2 C 22 % 1004,1 hPa 0,0 l/m 9,0 km/h (2 Bft) SO 130 5 min 0,000 mm 1,0 UV-I 566 W/m 9,4 C 34,2 C 11,9 km/h (2 Bft) 0,00 %
14.08.2015 18:06 34,1 C 22 % 1003,9 hPa 0,0 l/m 3,2 km/h (1 Bft) O 93 5 min 0,000 mm 1,0 UV-I 562 W/m 9,3 C 34,1 C 4,0 km/h (1 Bft) 0,00 %
14.08.2015 18:11 34,0 C 22 % 1003,9 hPa 0,0 l/m 0,0 km/h (0 Bft) S-SW 196 5 min 0,000 mm 1,0 UV-I 562 W/m 9,2 C 34,0 C 0,0 km/h (0 Bft) 0,00 %
14.08.2015 18:16 34,0 C 22 % 1003,9 hPa 0,0 l/m 1,8 km/h (1 Bft) NO 50 5 min 0,000 mm 1,0 UV-I 544 W/m 9,2 C 34,0 C 4,0 km/h (1 Bft) 0,00 %
14.08.2015 18:21 33,9 C 22 % 1004,0 hPa 0,0 l/m 6,5 km/h (2 Bft) O-SO 117 5 min 0,000 mm 1,0 UV-I 512 W/m 9,2 C 33,9 C 11,9 km/h (2 Bft) 0,00 %
14.08.2015 18:26 33,8 C 22 % 1004,0 hPa 0,0 l/m 9,4 km/h (2 Bft) SO 131 5 min 0,000 mm 1,0 UV-I 465 W/m 9,1 C 33,8 C 11,9 km/h (2 Bft) 0,00 %
14.08.2015 18:31 33,6 C 22 % 1004,0 hPa 0,0 l/m 1,4 km/h (1 Bft) O-SO 104 5 min 0,000 mm 1,0 UV-I 461 W/m 8,9 C 33,6 C 4,0 km/h (1 Bft) 0,00 %
14.08.2015 18:36 33,5 C 22 % 1003,9 hPa 0,0 l/m 1,4 km/h (1 Bft) O 97 5 min 0,000 mm 1,0 UV-I 424 W/m 8,8 C 33,5 C 4,0 km/h (1 Bft) 0,00 %
14.08.2015 18:41 33,5 C 22 % 1004,2 hPa 0,0 l/m 0,0 km/h (0 Bft) O-NO 63 5 min 0,000 mm 1,0 UV-I 392 W/m 8,8 C 33,5 C 0,0 km/h (0 Bft) 0,00 %
14.08.2015 18:46 33,5 C 22 % 1004,1 hPa 0,0 l/m 2,9 km/h (1 Bft) O-SO 119 5 min 0,000 mm 1,0 UV-I 337 W/m 8,8 C 33,5 C 4,0 km/h (1 Bft) 0,00 %
14.08.2015 18:51 33,5 C 22 % 1004,0 hPa 0,0 l/m 0,0 km/h (0 Bft) NO 49 5 min 0,000 mm 1,0 UV-I 305 W/m 8,8 C 33,5 C 0,0 km/h (0 Bft) 0,00 %
14.08.2015 18:56 33,5 C 22 % 1004,0 hPa 0,0 l/m 2,9 km/h (1 Bft) O-SO 108 5 min 0,000 mm 1,0 UV-I 289 W/m 8,8 C 33,5 C 4,0 km/h (1 Bft) 0,00 %
14.08.2015 19:01 33,5 C 22 % 1004,0 hPa 0,0 l/m 0,0 km/h (0 Bft) NO 52 5 min 0,000 mm 1,0 UV-I 223 W/m 8,8 C 33,5 C 0,0 km/h (0 Bft) 0,00 %
14.08.2015 19:06 33,3 C 22 % 1004,0 hPa 0,0 l/m 0,0 km/h (0 Bft) NO 48 5 min 0,000 mm 0,0 UV-I 108 W/m 8,7 C 33,3 C 0,0 km/h (0 Bft) 0,00 %
14.08.2015 19:11 33,0 C 23 % 1003,9 hPa 0,0 l/m 4,3 km/h (1 Bft) O-SO 106 0 min 0,000 mm 0,0 UV-I 93 W/m 9,1 C 33,0 C 7,9 km/h (2 Bft) 0,00 %
14.08.2015 19:16 32,5 C 24 % 1004,2 hPa 0,0 l/m 0,0 km/h (0 Bft) O 79 0 min 0,000 mm 0,0 UV-I 85 W/m 9,3 C 32,5 C 0,0 km/h (0 Bft) 0,00 %
14.08.2015 19:21 32,1 C 22 % 1004,1 hPa 0,0 l/m 0,0 km/h (0 Bft) NO 34 5 min 0,000 mm 0,0 UV-I 85 W/m 7,7 C 32,1 C 0,0 km/h (0 Bft) 0,00 %
14.08.2015 19:26 31,6 C 22 % 1004,1 hPa 0,0 l/m 0,0 km/h (0 Bft) O 85 0 min 0,000 mm 0,0 UV-I 67 W/m 7,3 C 31,6 C 0,0 km/h (0 Bft) 0,00 %
14.08.2015 19:31 31,2 C 23 % 1004,2 hPa 0,0 l/m 0,0 km/h (0 Bft) O 81 0 min 0,000 mm 0,0 UV-I 62 W/m 7,6 C 31,2 C 0,0 km/h (0 Bft) 0,00 %
14.08.2015 19:36 31,0 C 25 % 1004,0 hPa 0,0 l/m 0,0 km/h (0 Bft) O-NO 74 0 min 0,000 mm 0,0 UV-I 55 W/m 8,6 C 31,0 C 0,0 km/h (0 Bft) 0,00 %
14.08.2015 19:41 30,7 C 25 % 1004,1 hPa 0,0 l/m 0,0 km/h (0 Bft) NO 56 0 min 0,000 mm 0,0 UV-I 45 W/m 8,4 C 30,7 C 0,0 km/h (0 Bft) 0,00 %
14.08.2015 19:46 30,4 C 25 % 1004,0 hPa 0,0 l/m 0,0 km/h (0 Bft) O-NO 58 0 min 0,000 mm 0,0 UV-I 33 W/m 8,1 C 30,4 C 0,0 km/h (0 Bft) 0,00 %
14.08.2015 19:51 30,2 C 25 % 1004,1 hPa 0,0 l/m 0,0 km/h (0 Bft) O-NO 70 0 min 0,000 mm 0,0 UV-I 17 W/m 8,0 C 30,2 C 0,0 km/h (0 Bft) 0,00 %
14.08.2015 19:56 30,0 C 28 % 1004,2 hPa 0,0 l/m 0,0 km/h (0 Bft) O-NO 57 0 min 0,000 mm 0,0 UV-I 7 W/m 9,5 C 30,0 C 0,0 km/h (0 Bft) 0,00 %
14.08.2015 20:01 29,9 C 28 % 1004,0 hPa 0,0 l/m 0,0 km/h (0 Bft) O-NO 59 0 min 0,000 mm 0,0 UV-I 4 W/m 9,4 C 29,9 C 0,0 km/h (0 Bft) 0,00 %
14.08.2015 20:06 29,8 C 30 % 1003,8 hPa 0,0 l/m 0,0 km/h (0 Bft) O-NO 69 0 min 0,000 mm 0,0 UV-I 1 W/m 10,3 C 29,8 C 0,0 km/h (0 Bft) 0,00 %
14.08.2015 20:11 29,6 C 30 % 1004,0 hPa 0,0 l/m 0,0 km/h (0 Bft) O-NO 64 0 min 0,000 mm 0,0 UV-I 0 W/m 10,2 C 29,6 C 0,0 km/h (0 Bft) 0,00 %
14.08.2015 20:16 29,3 C 30 % 1004,1 hPa 0,0 l/m 0,0 km/h (0 Bft) O-NO 62 0 min 0,000 mm 0,0 UV-I 0 W/m 9,9 C 29,3 C 0,0 km/h (0 Bft) 0,00 %
14.08.2015 20:21 29,0 C 32 % 1003,9 hPa 0,0 l/m 0,0 km/h (0 Bft) O-NO 78 0 min 0,000 mm 0,0 UV-I 0 W/m 10,6 C 29,0 C 0,0 km/h (0 Bft) 0,00 %
14.08.2015 20:26 28,7 C 33 % 1004,1 hPa 0,0 l/m 0,0 km/h (0 Bft) O-NO 70 0 min 0,000 mm 0,0 UV-I 0 W/m 10,8 C 28,7 C 0,0 km/h (0 Bft) 0,00 %
14.08.2015 20:31 28,4 C 32 % 1003,9 hPa 0,0 l/m 0,0 km/h (0 Bft) NO 51 0 min 0,000 mm 0,0 UV-I 0 W/m 10,1 C 28,4 C 0,0 km/h (0 Bft) 0,00 %
14.08.2015 20:36 28,1 C 32 % 1004,0 hPa 0,0 l/m 0,0 km/h (0 Bft) O-NO 73 0 min 0,000 mm 0,0 UV-I 0 W/m 9,8 C 28,1 C 0,0 km/h (0 Bft) 0,00 %
14.08.2015 20:41 28,0 C 34 % 1004,0 hPa 0,0 l/m 0,0 km/h (0 Bft) O-NO 72 0 min 0,000 mm 0,0 UV-I 0 W/m 10,7 C 28,0 C 0,0 km/h (0 Bft) 0,00 %
14.08.2015 20:46 27,8 C 34 % 1004,3 hPa 0,0 l/m 0,0 km/h (0 Bft) O 101 0 min 0,000 mm 0,0 UV-I 0 W/m 10,5 C 27,8 C 0,0 km/h (0 Bft) 0,00 %
14.08.2015 20:51 27,6 C 34 % 1004,0 hPa 0,0 l/m 0,0 km/h (0 Bft) O-NO 70 0 min 0,000 mm 0,0 UV-I 0 W/m 10,3 C 27,6 C 0,0 km/h (0 Bft) 0,00 %
14.08.2015 20:56 27,5 C 35 % 1004,6 hPa 0,0 l/m 0,0 km/h (0 Bft) O-NO 60 0 min 0,000 mm 0,0 UV-I 0 W/m 10,7 C 27,5 C 0,0 km/h (0 Bft) 0,00 %
14.08.2015 21:01 27,4 C 36 % 1004,3 hPa 0,0 l/m 0,0 km/h (0 Bft) O-NO 60 0 min 0,000 mm 0,0 UV-I 0 W/m 11,0 C 27,4 C 0,0 km/h (0 Bft) 0,00 %
14.08.2015 21:06 27,1 C 35 % 1004,4 hPa 0,0 l/m 0,0 km/h (0 Bft) NO 46 0 min 0,000 mm 0,0 UV-I 0 W/m 10,3 C 27,1 C 0,0 km/h (0 Bft) 0,00 %
14.08.2015 21:11 26,9 C 37 % 1004,5 hPa 0,0 l/m 0,0 km/h (0 Bft) NO 39 0 min 0,000 mm 0,0 UV-I 0 W/m 11,0 C 26,9 C 0,0 km/h (0 Bft) 0,00 %
14.08.2015 21:16 26,6 C 38 % 1004,4 hPa 0,0 l/m 0,0 km/h (0 Bft) NO 48 0 min 0,000 mm 0,0 UV-I 0 W/m 11,1 C 26,6 C 0,0 km/h (0 Bft) 0,00 %
14.08.2015 21:21 26,4 C 38 % 1004,5 hPa 0,0 l/m 0,0 km/h (0 Bft) N 355 0 min 0,000 mm 0,0 UV-I 0 W/m 10,9 C 26,4 C 0,0 km/h (0 Bft) 0,00 %
14.08.2015 21:26 26,2 C 37 % 1004,6 hPa 0,0 l/m 0,0 km/h (0 Bft) N 356 0 min 0,000 mm 0,0 UV-I 0 W/m 10,3 C 26,2 C 0,0 km/h (0 Bft) 0,00 %
14.08.2015 21:31 26,3 C 34 % 1004,7 hPa 0,0 l/m 0,0 km/h (0 Bft) N-NO 31 0 min 0,000 mm 0,0 UV-I 0 W/m 9,2 C 26,3 C 0,0 km/h (0 Bft) 0,00 %
14.08.2015 21:36 26,7 C 35 % 1004,7 hPa 0,0 l/m 0,0 km/h (0 Bft) O-NO 71 0 min 0,000 mm 0,0 UV-I 0 W/m 10,0 C 26,7 C 0,0 km/h (0 Bft) 0,00 %
14.08.2015 21:41 27,1 C 34 % 1004,9 hPa 0,0 l/m 0,0 km/h (0 Bft) N-NO 23 0 min 0,000 mm 0,0 UV-I 0 W/m 9,9 C 27,1 C 0,0 km/h (0 Bft) 0,00 %
14.08.2015 21:46 27,3 C 34 % 1004,9 hPa 0,0 l/m 0,0 km/h (0 Bft) N-NO 30 0 min 0,000 mm 0,0 UV-I 0 W/m 10,0 C 27,3 C 0,0 km/h (0 Bft) 0,00 %
14.08.2015 21:51 27,4 C 35 % 1005,4 hPa 0,0 l/m 2,2 km/h (1 Bft) N 352 0 min 0,000 mm 0,0 UV-I 0 W/m 10,6 C 27,4 C 4,0 km/h (1 Bft) 0,00 %
14.08.2015 21:56 27,4 C 36 % 1005,7 hPa 0,0 l/m 1,4 km/h (1 Bft) NW 320 0 min 0,000 mm 0,0 UV-I 0 W/m 11,0 C 27,4 C 4,0 km/h (1 Bft) 0,00 %
14.08.2015 22:01 27,2 C 38 % 1005,8 hPa 0,0 l/m 0,0 km/h (0 Bft) O-NO 73 0 min 0,000 mm 0,0 UV-I 0 W/m 11,6 C 27,2 C 0,0 km/h (0 Bft) 0,00 %
14.08.2015 22:06 26,8 C 40 % 1006,0 hPa 0,0 l/m 0,0 km/h (0 Bft) N-NO 33 0 min 0,000 mm 0,0 UV-I 0 W/m 12,1 C 26,8 C 0,0 km/h (0 Bft) 0,00 %
14.08.2015 22:11 26,6 C 42 % 1006,0 hPa 0,0 l/m 0,0 km/h (0 Bft) NO 46 0 min 0,000 mm 0,0 UV-I 0 W/m 12,6 C 26,6 C 0,0 km/h (0 Bft) 0,00 %
14.08.2015 22:16 26,3 C 43 % 1006,2 hPa 0,0 l/m 0,0 km/h (0 Bft) NO 42 0 min 0,000 mm 0,0 UV-I 0 W/m 12,7 C 26,3 C 0,0 km/h (0 Bft) 0,00 %
14.08.2015 22:21 25,9 C 46 % 1006,4 hPa 0,0 l/m 0,0 km/h (0 Bft) NO 51 0 min 0,000 mm 0,0 UV-I 0 W/m 13,4 C 25,9 C 0,0 km/h (0 Bft) 0,00 %
14.08.2015 22:26 25,6 C 47 % 1006,4 hPa 0,0 l/m 0,0 km/h (0 Bft) O-NO 63 0 min 0,000 mm 0,0 UV-I 0 W/m 13,4 C 25,6 C 0,0 km/h (0 Bft) 0,00 %
14.08.2015 22:31 25,3 C 48 % 1006,7 hPa 0,0 l/m 0,0 km/h (0 Bft) N-NW 339 0 min 0,000 mm 0,0 UV-I 0 W/m 13,5 C 25,3 C 0,0 km/h (0 Bft) 0,00 %
14.08.2015 22:36 25,0 C 50 % 1006,7 hPa 0,0 l/m 5,8 km/h (2 Bft) W-NW 301 0 min 0,000 mm 0,0 UV-I 0 W/m 13,8 C 25,0 C 7,9 km/h (2 Bft) 0,00 %
14.08.2015 22:41 24,8 C 50 % 1006,7 hPa 0,0 l/m 0,4 km/h (0 Bft) O-NO 77 0 min 0,000 mm 0,0 UV-I 0 W/m 13,7 C 24,8 C 4,0 km/h (1 Bft) 0,00 %
14.08.2015 22:46 24,5 C 51 % 1006,6 hPa 0,0 l/m 0,7 km/h (0 Bft) W-SW 246 0 min 0,000 mm 0,0 UV-I 0 W/m 13,7 C 24,5 C 4,0 km/h (1 Bft) 0,00 %
14.08.2015 22:51 24,2 C 52 % 1006,8 hPa 0,0 l/m 0,4 km/h (0 Bft) W-SW 257 0 min 0,000 mm 0,0 UV-I 0 W/m 13,7 C 24,2 C 4,0 km/h (1 Bft) 0,00 %
14.08.2015 22:56 24,0 C 54 % 1006,9 hPa 0,0 l/m 0,0 km/h (0 Bft) NO 41 0 min 0,000 mm 0,0 UV-I 0 W/m 14,1 C 24,0 C 0,0 km/h (0 Bft) 0,00 %
14.08.2015 23:01 23,8 C 54 % 1006,8 hPa 0,0 l/m 3,2 km/h (1 Bft) W-NW 285 0 min 0,000 mm 0,0 UV-I 0 W/m 13,9 C 23,8 C 7,9 km/h (2 Bft) 0,00 %
14.08.2015 23:06 23,4 C 56 % 1007,0 hPa 0,0 l/m 0,0 km/h (0 Bft) NO 43 0 min 0,000 mm 0,0 UV-I 0 W/m 14,1 C 23,4 C 0,0 km/h (0 Bft) 0,00 %
14.08.2015 23:11 23,1 C 58 % 1007,1 hPa 0,0 l/m 0,0 km/h (0 Bft) NO 38 0 min 0,000 mm 0,0 UV-I 0 W/m 14,4 C 23,1 C 0,0 km/h (0 Bft) 0,00 %
14.08.2015 23:16 22,9 C 59 % 1007,3 hPa 0,0 l/m 0,0 km/h (0 Bft) N-NW 347 0 min 0,000 mm 0,0 UV-I 0 W/m 14,5 C 22,9 C 0,0 km/h (0 Bft) 0,00 %
14.08.2015 23:21 22,6 C 60 % 1007,3 hPa 0,0 l/m 0,0 km/h (0 Bft) NO 41 0 min 0,000 mm 0,0 UV-I 0 W/m 14,4 C 22,6 C 0,0 km/h (0 Bft) 0,00 %
14.08.2015 23:26 22,4 C 61 % 1007,1 hPa 0,0 l/m 0,0 km/h (0 Bft) N-NO 20 0 min 0,000 mm 0,0 UV-I 0 W/m 14,5 C 22,4 C 0,0 km/h (0 Bft) 0,00 %
14.08.2015 23:31 22,2 C 62 % 1007,4 hPa 0,0 l/m 0,0 km/h (0 Bft) W-SW 255 0 min 0,000 mm 0,0 UV-I 0 W/m 14,6 C 22,2 C 0,0 km/h (0 Bft) 0,00 %
14.08.2015 23:36 22,1 C 63 % 1007,3 hPa 0,0 l/m 0,0 km/h (0 Bft) N-NO 26 0 min 0,000 mm 0,0 UV-I 0 W/m 14,7 C 22,1 C 0,0 km/h (0 Bft) 0,00 %
14.08.2015 23:41 22,0 C 62 % 1007,2 hPa 0,0 l/m 0,0 km/h (0 Bft) NO 51 0 min 0,000 mm 0,0 UV-I 0 W/m 14,4 C 22,0 C 0,0 km/h (0 Bft) 0,00 %
14.08.2015 23:46 21,9 C 62 % 1007,5 hPa 0,0 l/m 1,8 km/h (1 Bft) N-NO 13 0 min 0,000 mm 0,0 UV-I 0 W/m 14,3 C 21,9 C 4,0 km/h (1 Bft) 0,00 %
14.08.2015 23:51 21,8 C 62 % 1007,3 hPa 0,0 l/m 0,4 km/h (0 Bft) N-NO 33 0 min 0,000 mm 0,0 UV-I 0 W/m 14,2 C 21,8 C 4,0 km/h (1 Bft) 0,00 %
14.08.2015 23:56 21,8 C 62 % 1007,5 hPa 0,0 l/m 2,2 km/h (1 Bft) NW 311 0 min 0,000 mm 0,0 UV-I 0 W/m 14,2 C 21,8 C 4,0 km/h (1 Bft) 0,00 %
_ Min-Zeit 06:00 17:45 20:06 - 00:19 - - - - - - 19:26 06:00 00:19 00:04
Minimum _ 16,5 C 22 % 1003,8 hPa - 0,0 km/h (0 Bft) - - - - - - 7,3 C 16,5 C 0,0 km/h (0 Bft) 0,00 %
_ Max-Zeit 16:35 05:55 08:25 00:04 16:00 - - 17:56 00:04 12:05 14:40 11:50 16:35 16:00 00:04
Maximum _ 34,4 C 77 % 1011,0 hPa 0,0 l/m 11,5 km/h
O (2 Bft)
- - 6 min 0,000 mm 4,0 UV-I 893 W/m 16,1 C 34,4 C 19,8 km/h
O (3 Bft)
0,00 %
Durchschnitt _ 26,8 C 44 % 1008,1 hPa #0,0 l/m 1,0 km/h (0 Bft) O - #13:01 h #0,000 mm 2,2 UV-I 531 W/m 12,5 C 26,8 C 2,0 km/h (1 Bft) 0,00 %